Regional Weather Roundup
Issued by NWS Bismarck, ND

Home | Current Version | Previous Version | Text Only | Print | Product List | Glossary On
Versions: 1 2 3 4 5 6 7 8 9 10 11 12 13 14 15 16 17 18 19 20 21 22 23 24 25 26 27 28 29 30 31 32 33 34 35 36 37 38 39 40 41 42 43 44 45 46 47 48 49 50
000
ASUS43 KBIS 301302
RWRBIS

NWR BROADCAST TEXT
NATIONAL WEATHER SERVICE BISMARCK ND
800 AM CDT THU MAR 30 2017

NOTE: "FAIR" INDICATES FEW OR NO CLOUDS BELOW 12,000 FEET WITH NO
SIGNIFICANT WEATHER AND/OR OBSTRUCTIONS TO VISIBILITY.


CITY           SKY/WX    TMP DP  RH WIND       PRES   REMARKS
WILLISTON      CLOUDY    44  37  76 CALM      29.72S
MINOT          MOCLDY    45  35  68 S12       29.75S
MINOT AFB      NOT AVBL
BISMARCK       FAIR      38  34  85 S12       29.85S
DICKINSON      CLOUDY    40  36  86 S16       29.72F
GARRISON         N/A     38  33  82 SE6       29.78F
HETTINGER ARPT CLOUDY    39  35  86 SE8       29.78F
JAMESTOWN      FAIR      34  33  96 S7        29.91S
HAZEN          FAIR      41  34  75 E5        29.81S
LINTON           N/A     32  32 100 SE7       29.89S
MANDAN         FAIR      36  36 100 S12       29.83F
STANLEY        CLOUDY    39  39 100 E5        29.77S
TIOGA          CLOUDY    37  39 100 E6        29.74S
WATFORD CITY   CLOUDY    43  37  81 SE7       29.72S
$$

CITY           SKY/WX    TMP DP  RH WIND       PRES   REMARKS
GRAND FORKS    MOCLDY    37  35  92 S9        29.93F
GRAND FORKS AF MOCLDY    40  35  80 S15       29.92F
DEVILS LAKE    CLOUDY    38  34  85 S14       29.87F
FARGO          FAIR      32  31  96 NW5       29.95F FOG
CAVALIER       FAIR      39  36  87 S14       29.88S
GRAFTON        FAIR      37  37 100 S10       29.94S
GWINNER        PTSUNNY   32  32 100 MISG      29.93F FOG
LANGDON        CLOUDY    37  37 100 S17       29.86S
ROLLA          CLOUDY    36  36 100 S12       29.81S
$$

CITY           SKY/WX    TMP DP  RH WIND       PRES   REMARKS
ABERDEEN       CLOUDY    35  32  88 NE3       29.92S
MOBRIDGE       CLOUDY    33  29  85 S3        29.85S
BUFFALO          N/A     42  39  89 S8        29.69F
RAPID CITY     FOG       33  32  96 SE6       29.77S VSB<1/4
GLASGOW        FAIR      38  31  76 E7        29.67F
SIDNEY         CLOUDY    44  35  70 CALM      29.71F
WOLF POINT     FAIR      39  33  79 NE3       29.69S
GLENDIVE       LGT RAIN  43  36  76 CALM      29.71S
MILES CITY     CLOUDY    45  35  68 SE7       29.69S
BAKER          CLOUDY    43  38  82 SE7       29.72F
$$

CITY           SKY/WX    TMP DP  RH WIND       PRES   REMARKS
BILLINGS       LGT RAIN  49  37  63 SW6       29.70S
GREAT FALLS    FAIR      39  32  76 SW7       29.70S
$$




USA.gov is the U.S. government's official web portal to all federal, state and local government web resources and services.